sat.trackr.live / text

‹ back to catalog

STARLINK-4050

NORAD 53274 · 2022-086AJ

PAYLOAD ACTIVE UNKNOWN

§ Identity

Operator
Country
US
Launch date
2022-07-24
Launch site
AFETR
Launch vehicle
Mass (kg)
RCS (m²)

Purposes: comms

External: N2YO · Heavens-Above · Gunter

§ Orbital elements

Epoch: 2026-09-19T23:34:38.616960Z

Period
93.90 min
Inclination
53.1610°
Eccentricity
0.0001107
Mean motion
15.33537990 rev/d
Perigee alt
464.5 km
Apogee alt
466.0 km
Semi-major
6,843.4 km
B*
3.2405e-5
RAAN
16.4505°
Arg perigee
79.0976°
Mean anomaly
281.0151°
Rev number
23,074

§ Raw data

STARLINK-40501 53274U 22086AJ  26262.98239140  .00000693  00000+0  32405-4 0  99982 53274  53.1610  16.4505 0001107  79.0976 281.0151 15.33537990230746

JSON: /api/v1/satellites/53274 · /tle

For live sub-satellite position, see the globe view (requires WebGL).

§ Visibility from observer

Set your observer location to see the next 7 days of passes ≥ 10°. The values pass through the URL so the page stays shareable.

No JS? Fill the form by hand. The geolocation button needs JavaScript.